Temp
33 31 30 29 30 32 33 34 34 35 35 34 33 31 29 26 25 28 28 28 29 27 26 27 25 26 26 26 27 27 27 27 27 28 29 29 31 31 31 31 31 32 32 32 32 31 31 31 30 30 30 30 29 29 28 28 27 27 26 26 25 25 25 24 24 23 23 23 23 23 23 23 23 23 23 23 23 23 23 23 24 24 24 24 24 24
33 30 29 32 33 34 35 35 36 35 35 35 32 30 29 27 26 29 29 28 29 27 26 27 26 26 27 27 28 28 28 28 28 28 29 29 30 30 30 31 31 32 32 32 32 31 31 31 30 30 30 30 29 28 28 28 27 27 26 26 25 25 25 25 24 24 24 24 24 24 24 24 24 23 24 24 24 24 24 24 24 24 24 24 24 24
31 29 31 34 35 35 35 36 36 35 35 34 32 29 27 28 28 29 29 29 29 27 26 27 26 26 28 28 28 28 28 28 28 29 29 28 29 29 29 30 30 31 32 32 32 31 31 31 30 30 30 29 29 28 28 27 27 26 26 26 26 25 25 25 25 25 24 24 25 25 25 24 24 24 24 24 24 24 24 24 24 24 24 24 24 24
27 30 34 36 35 35 35 35 35 34 34 33 32 28 26 29 28 25 27 29 29 28 27 27 27 26 28 28 28 29 29 29 29 29 28 27 28 28 28 29 30 30 31 31 31 31 31 30 30 30 30 29 29 28 28 27 27 26 26 26 26 25 25 25 25 26 25 25 25 25 25 25 24 25 25 24 24 25 24 24 24 24 24 25 25 25
30 33 36 36 35 35 34 34 35 33 31 33 33 30 28 31 29 26 28 29 29 28 28 28 24 24 27 27 27 28 28 28 27 27 28 27 27 27 27 28 28 30 31 31 31 31 31 30 30 30 30 29 29 29 28 27 27 26 26 26 26 25 25 26 26 26 26 26 26 26 25 25 25 25 25 25 25 25 25 24 24 24 25 25 25 25
33 35 36 35 35 35 34 34 34 32 29 29 33 34 33 34 32 30 30 29 25 24 28 28 22 22 25 26 26 27 27 27 26 26 27 27 26 26 25 25 26 26 28 31 32 31 30 30 30 30 30 29 29 29 28 28 27 26 26 26 26 26 26 26 26 26 26 26 26 26 26 26 26 25 25 26 25 25 25 25 25 25 25 25 25 25
34 35 35 34 34 34 34 33 34 35 29 26 32 36 36 36 34 31 30 27 23 22 27 29 24 21 23 25 26 26 26 26 25 26 26 26 26 25 24 25 26 25 25 28 30 31 31 30 30 30 30 29 29 29 29 28 27 26 26 26 26 26 26 26 26 26 26 26 26 27 26 27 26 26 26 26 26 25 25 25 25 25 25 25 25 25
35 35 34 35 34 34 33 32 34 36 29 26 33 36 35 35 34 33 31 28 26 26 27 29 26 22 21 23 25 26 26 25 25 25 25 25 25 25 24 25 26 26 26 26 27 30 31 30 30 30 30 30 29 29 29 28 27 26 26 26 26 26 26 26 26 26 26 26 26 26 26 26 27 26 26 26 26 26 26 25 25 25 25 25 25 25
36 34 34 35 34 32 32 33 35 36 32 31 35 35 34 35 34 34 32 29 29 27 22 25 27 22 21 23 24 25 25 25 25 25 25 25 24 25 24 24 25 25 26 26 26 28 30 30 30 30 30 30 29 29 29 29 28 27 26 26 26 26 26 26 26 26 26 26 26 26 26 26 26 26 26 26 26 26 26 26 25 25 25 25 25 25
35 34 35 35 33 33 33 35 36 35 34 34 35 35 35 36 35 35 32 28 27 25 21 24 26 22 20 22 23 24 24 24 26 25 25 25 24 24 24 24 24 24 25 27 26 27 29 30 30 30 30 30 30 30 29 29 28 26 26 26 26 26 26 26 26 25 26 26 25 26 26 26 26 26 26 26 27 27 26 26 26 25 25 25 25 25
35 35 35 35 34 34 34 35 35 35 35 35 35 35 34 34 35 33 32 28 25 23 23 25 26 23 21 22 23 24 25 25 26 26 25 25 24 24 24 24 24 24 25 27 27 27 28 29 30 31 30 30 30 30 29 29 27 27 26 26 26 26 26 26 26 25 25 25 25 26 26 26 26 26 26 26 27 27 26 26 26 26 26 26 25 25
35 34 34 35 35 35 35 35 35 36 35 35 35 33 29 28 29 28 27 27 23 22 24 26 27 24 21 22 24 25 27 27 27 26 25 25 24 24 24 24 24 24 24 26 27 28 28 28 30 31 30 30 30 29 29 28 27 27 26 26 26 26 26 26 25 25 25 25 25 26 26 26 26 26 26 26 26 27 26 26 26 26 26 26 26 25
33 34 35 35 35 35 34 33 33 35 35 35 33 29 24 23 24 23 23 23 22 22 25 27 26 23 21 23 26 26 27 28 27 27 26 26 25 24 24 24 24 24 24 25 26 27 28 28 30 30 29 29 30 29 29 29 27 27 26 26 26 26 26 26 25 25 25 25 25 26 26 26 26 26 26 26 26 26 26 26 26 26 26 26 26 26
28 33 35 34 34 35 34 31 28 30 32 33 30 26 23 22 22 22 22 23 23 23 25 27 25 22 21 24 27 27 27 27 27 26 26 26 26 25 25 25 24 24 24 25 26 27 28 27 28 30 29 29 29 29 29 29 28 27 26 26 26 26 26 25 25 25 25 25 25 25 26 26 26 26 26 26 26 26 26 26 26 26 26 26 26 26
24 26 32 33 32 33 35 33 31 31 32 32 34 31 25 23 23 22 22 22 23 23 24 25 24 21 21 24 27 27 27 27 26 25 25 25 25 26 26 25 24 24 25 25 26 27 27 26 27 28 29 29 29 29 29 28 28 27 27 26 26 26 26 25 25 25 25 25 25 25 26 26 26 26 26 26 26 26 26 26 26 26 26 26 26 26
24 24 32 35 34 34 34 35 36 34 31 32 35 31 26 26 26 23 23 23 23 23 22 22 22 22 24 25 27 27 27 26 26 25 25 25 25 26 26 25 24 24 25 25 26 27 27 26 26 27 28 29 29 29 29 28 28 27 27 26 26 26 26 25 25 25 25 25 25 25 25 26 26 26 26 26 26 26 26 25 25 26 26 26 26 26
23 24 33 35 33 36 35 35 37 33 29 30 30 27 28 33 31 24 23 24 23 22 22 21 21 22 24 25 26 27 27 26 26 26 25 25 25 25 24 24 24 24 24 25 25 26 25 25 25 26 27 29 29 29 29 28 28 28 27 27 26 26 26 25 25 25 25 25 25 25 26 26 26 26 26 26 26 26 26 26 26 26 26 26 26 26
26 25 32 35 33 35 36 35 36 35 33 30 27 28 32 34 32 27 23 23 23 22 21 21 21 21 22 23 25 26 26 25 25 24 24 24 23 23 23 23 23 24 24 24 25 25 24 24 24 25 26 27 28 29 29 28 27 27 26 25 25 25 26 26 25 25 25 25 25 25 26 26 26 26 26 26 26 26 26 26 26 26 26 27 26 27
30 24 29 36 34 34 37 35 32 34 36 32 30 33 32 27 25 25 23 22 22 22 21 21 21 21 21 21 23 23 23 22 22 22 22 22 21 21 22 22 22 23 23 24 24 23 23 23 23 25 25 26 27 28 27 27 27 27 26 25 24 24 25 25 25 25 25 25 25 25 26 26 26 26 26 26 26 26 26 26 27 27 27 27 27 27
33 26 25 34 36 34 34 32 28 29 34 34 33 35 33 28 25 25 24 24 22 22 21 21 20 21 21 21 21 22 22 22 22 22 21 21 21 20 21 21 22 23 23 23 23 22 22 23 23 24 25 25 26 27 27 26 27 27 26 26 24 24 24 24 24 24 24 25 26 26 26 26 26 26 26 26 26 26 26 27 27 27 27 27 27 27
33 28 23 30 35 32 30 31 30 29 31 31 29 29 30 29 28 27 26 25 23 22 22 21 20 20 22 22 22 22 22 21 22 22 21 21 21 20 21 21 22 22 22 22 22 22 22 22 23 23 24 25 25 26 26 26 27 27 26 25 25 24 25 25 24 23 23 24 25 26 26 26 26 26 26 26 27 27 27 27 27 27 27 27 27 28
31 29 24 25 28 26 28 33 35 33 33 32 29 28 28 28 26 24 24 24 24 23 22 21 20 21 23 23 22 23 22 21 22 22 22 21 21 21 21 21 21 22 21 21 21 22 21 22 22 23 24 24 24 24 25 25 25 25 25 25 25 25 25 25 25 25 24 24 25 26 26 26 26 26 26 26 26 26 27 27 27 28 28 28 28 28
31 30 25 23 26 28 31 35 35 34 35 34 32 32 32 30 26 22 21 23 23 23 23 22 20 21 23 23 23 23 22 21 22 22 22 21 21 22 22 21 21 21 21 20 20 21 21 21 21 22 23 23 23 23 23 23 24 24 25 25 26 26 25 25 25 25 25 25 25 25 26 26 26 26 26 26 25 25 26 25 26 26 27 27 27 28
31 30 25 23 27 30 33 35 35 35 35 32 32 33 33 31 29 27 25 25 23 22 23 22 20 21 23 24 23 22 22 22 22 22 22 21 21 21 21 21 21 21 20 20 20 21 21 21 21 21 22 22 22 21 21 21 22 22 23 25 25 25 25 25 25 25 25 26 26 26 26 26 26 26 26 26 26 26 25 25 25 25 25 25 25 26
28 28 25 22 23 25 27 29 30 31 32 31 32 34 33 32 32 30 28 27 24 22 23 22 20 21 23 24 24 23 23 22 22 22 22 21 20 20 21 21 20 20 20 20 20 20 21 21 21 21 21 21 21 21 21 21 21 21 21 22 23 24 24 25 25 25 25 26 26 26 26 26 26 26 26 26 26 26 25 25 25 25 25 25 25 25
29 28 26 22 21 22 22 23 24 26 28 30 31 33 33 33 32 29 26 24 22 22 23 22 21 21 23 24 24 23 23 23 22 22 22 21 20 20 20 20 19 19 19 19 19 20 20 21 21 21 21 20 20 21 21 21 21 21 21 21 21 22 23 24 25 25 25 25 25 25 26 26 26 26 26 26 26 25 25 25 25 25 25 25 26 26
30 28 27 25 23 23 23 24 28 29 27 27 29 31 32 33 32 29 24 22 23 23 22 22 22 22 22 23 23 23 23 23 23 22 22 21 21 20 20 20 19 19 19 19 19 20 20 21 21 21 21 21 21 21 21 21 21 21 21 21 21 22 23 23 24 24 24 24 24 24 25 26 26 26 26 26 26 25 25 25 25 25 25 25 26 25
29 26 28 28 26 27 28 29 32 31 28 27 28 29 31 32 32 28 24 24 25 23 21 22 23 22 22 23 23 23 23 23 22 22 21 21 21 20 20 20 19 19 19 19 20 20 20 20 20 21 21 21 21 21 21 21 21 22 22 22 22 22 22 23 24 24 23 24 24 24 25 25 25 26 25 25 25 25 25 25 25 25 25 26 26 26
28 25 28 29 27 29 32 31 32 32 31 30 30 29 30 31 30 28 26 28 27 23 21 24 24 22 23 24 23 23 23 22 21 22 21 21 21 20 20 19 19 19 19 19 19 20 20 20 20 20 20 21 21 21 21 20 21 22 22 22 22 22 22 22 23 23 23 23 23 23 24 24 24 24 24 24 24 24 24 25 25 25 25 26 26 26
29 26 29 29 27 28 31 31 31 31 30 30 30 30 31 31 30 29 29 29 26 24 24 25 24 23 24 24 23 23 23 22 22 22 22 21 21 20 20 19 19 19 19 19 19 19 20 20 20 20 20 20 20 20 21 21 21 22 22 21 21 21 22 22 22 22 22 22 22 22 23 23 23 23 23 23 23 24 24 24 24 24 25 25 25 25
28 26 30 30 26 26 29 31 31 31 30 28 29 31 31 30 30 30 29 28 26 25 26 25 23 22 23 24 23 23 23 22 22 21 21 21 21 20 20 19 19 19 19 19 19 19 19 20 20 20 20 20 20 20 20 21 21 21 21 21 21 21 22 21 21 21 21 21 21 22 22 22 22 22 22 22 22 23 23 23 24 24 24 24 24 24
28 28 30 29 23 23 28 30 30 31 30 27 27 29 30 29 29 29 29 28 26 25 25 24 22 21 23 24 23 22 22 21 21 21 21 21 21 21 20 19 19 19 19 19 19 19 19 20 20 20 20 20 20 20 20 20 20 20 20 20 20 21 21 21 21 20 20 20 20 20 21 21 21 21 21 21 21 21 22 22 23 23 23 23 23 23
29 28 27 26 22 22 27 28 28 29 26 24 26 28 29 30 30 28 28 28 28 26 25 23 22 23 24 23 22 22 21 21 21 21 21 21 21 21 20 20 19 19 19 19 19 19 19 20 20 19 20 19 20 20 20 20 20 20 20 20 20 20 20 20 19 19 19 19 19 19 20 21 21 21 21 20 20 20 21 21 22 22 22 22 23 23
30 29 28 27 23 22 25 27 26 25 22 23 28 31 30 30 30 28 27 28 28 26 25 24 24 24 24 23 22 22 21 21 21 21 21 21 21 21 20 20 20 19 19 19 19 19 20 20 20 19 20 19 19 19 20 20 19 19 19 19 19 19 19 19 19 18 19 19 19 19 20 21 21 20 20 20 20 20 20 21 21 21 22 22 22 22
30 29 28 27 24 23 25 25 22 21 23 26 30 31 31 31 31 29 28 28 28 26 25 24 24 24 23 23 22 22 21 21 21 21 21 21 21 21 20 20 20 20 19 19 20 19 19 20 20 19 20 20 19 19 19 19 19 19 19 19 19 18 18 18 18 18 18 18 19 19 19 20 20 20 20 20 20 20 20 20 20 20 21 21 21 21
31 29 28 26 25 24 23 22 21 22 26 29 30 30 30 31 30 28 26 26 27 26 25 24 24 23 22 22 22 22 21 21 21 20 21 21 21 21 20 20 20 20 20 20 20 19 20 20 20 20 20 20 19 19 19 19 19 19 18 18 18 18 18 18 18 18 18 18 18 18 18 19 19 19 19 19 19 19 19 19 20 20 20 20 20 20
31 30 27 25 25 24 22 21 23 24 25 26 28 29 30 30 29 27 24 25 27 26 24 24 23 22 22 22 22 22 22 21 20 20 20 21 21 20 20 20 20 20 20 20 20 20 20 20 20 20 20 20 20 19 19 19 19 19 18 18 18 18 18 17 17 17 17 17 17 18 18 18 18 18 18 18 18 19 19 19 19 19 19 19 20 20
31 30 28 25 24 24 22 21 22 22 22 24 27 30 31 30 30 28 25 24 26 25 24 24 23 22 22 22 22 22 21 21 19 19 20 21 21 20 20 20 20 20 20 20 20 20 20 20 20 20 20 20 20 20 20 19 19 19 19 18 18 18 18 18 18 18 17 17 18 18 18 18 18 18 18 18 18 18 18 19 19 18 19 19 19 19
31 30 29 26 24 24 22 21 21 21 22 25 28 30 31 30 30 29 24 22 25 25 24 23 23 23 23 22 22 22 21 21 19 19 21 21 21 20 20 20 20 20 20 19 20 20 19 20 20 20 20 20 20 20 20 20 19 19 19 19 19 18 18 18 18 18 18 18 18 18 18 18 18 18 18 18 18 18 18 19 18 18 18 18 19 19
29 29 28 25 22 23 22 21 22 22 24 26 29 30 30 31 30 27 22 21 25 26 24 23 23 23 23 23 22 22 22 21 20 20 21 22 21 21 21 20 20 20 20 20 20 20 19 19 19 19 20 20 21 21 20 20 20 20 19 19 19 19 19 18 18 18 18 18 18 18 18 18 18 17 18 17 17 18 18 18 18 18 17 17 18 18
26 27 26 24 22 23 22 21 22 23 26 28 28 29 30 30 28 24 21 23 26 25 24 24 23 23 23 23 23 22 21 21 21 20 21 22 22 21 21 21 21 21 21 21 20 20 19 19 20 20 20 20 21 20 20 20 20 20 20 20 20 19 19 19 19 19 18 18 18 18 18 18 18 17 18 17 17 17 17 17 17 17 17 17 17 17
24 25 25 24 23 23 23 22 22 23 26 28 28 28 29 27 24 22 23 25 25 24 24 24 23 23 23 23 22 21 21 21 21 21 21 22 22 21 21 21 22 21 22 22 21 20 20 19 20 19 20 20 20 20 20 20 19 19 20 20 20 20 20 20 20 19 19 19 19 18 18 18 17 17 17 17 17 17 17 17 17 17 17 17 17 17
25 23 23 23 24 24 23 22 21 22 25 28 28 27 27 25 24 24 25 25 25 25 24 23 23 23 23 22 22 21 21 21 21 21 21 21 21 21 21 21 22 22 22 22 21 21 20 20 20 19 20 20 20 20 20 20 19 19 19 19 20 20 20 20 20 20 19 19 19 19 18 18 18 18 17 17 17 17 17 17 17 17 17 17 16 16
26 24 22 23 25 23 21 21 23 24 26 28 27 26 26 26 26 26 25 25 25 24 24 23 23 23 23 22 21 21 21 21 21 21 22 22 21 21 20 21 21 21 22 22 22 21 21 20 20 20 20 20 20 20 20 20 20 20 19 20 20 20 20 20 20 20 20 20 19 19 18 18 18 18 17 17 17 17 17 17 17 17 17 17 16 16
26 26 24 25 26 25 24 24 26 26 27 27 27 26 26 26 26 26 26 25 25 24 24 24 23 23 23 22 21 21 21 21 21 22 22 22 22 21 21 21 21 21 22 22 21 21 21 20 20 20 20 20 20 20 20 20 20 20 20 20 20 20 20 20 20 20 20 20 20 19 19 18 18 18 17 17 18 18 17 17 17 17 17 17 17 16
28 28 26 26 27 26 26 26 27 27 27 27 27 27 27 27 27 27 26 25 24 24 24 24 23 23 23 22 22 21 21 21 21 22 22 22 21 21 21 21 21 22 22 21 21 21 21 21 20 20 20 20 20 20 20 20 20 20 20 20 20 20 20 20 20 20 20 20 19 19 19 19 19 18 18 18 17 18 18 18 17 17 17 17 16 16
27 27 26 27 27 25 25 26 27 28 28 27 27 28 28 28 28 27 26 25 24 24 24 24 23 23 22 22 22 21 21 21 21 21 21 21 21 21 21 21 21 21 22 21 21 21 21 20 20 20 20 20 20 20 20 19 19 19 19 20 20 20 20 21 21 20 20 20 19 19 19 19 19 19 19 18 18 17 17 18 18 18 17 17 16 16
26 26 26 27 27 26 25 26 28 28 28 27 27 28 28 27 27 27 26 25 25 24 24 23 23 22 22 22 22 21 21 22 22 21 21 21 21 20 20 21 21 21 21 21 21 21 20 20 20 20 20 20 20 20 20 19 19 19 19 19 19 20 20 20 20 20 20 20 20 19 19 19 19 19 18 18 18 18 17 18 18 18 18 17 17 17
26 25 25 26 26 26 25 26 27 28 27 27 27 28 28 27 26 26 26 26 25 24 24 23 22 22 22 22 22 21 22 22 22 21 21 21 20 20 20 21 21 21 21 21 20 20 20 20 20 20 20 19 19 19 19 19 19 19 19 19 19 19 20 20 20 20 20 20 20 19 19 19 19 19 18 18 18 18 18 17 18 18 18 17 17 17
26 25 26 26 25 25 25 26 27 27 26 26 27 27 27 27 26 26 26 26 25 24 24 23 22 22 22 22 22 22 22 22 21 21 21 20 20 20 20 21 21 20 20 20 20 20 20 20 20 19 19 19 19 19 19 19 19 19 19 19 19 19 20 20 20 20 19 20 20 19 20 19 19 19 19 18 18 18 18 17 17 17 17 17 17 17
27 27 27 26 25 25 26 27 27 27 26 26 26 27 27 27 26 26 26 26 26 26 25 23 22 22 22 22 22 22 22 21 21 21 20 20 20 20 21 21 20 20 20 20 20 20 20 20 20 20 19 19 19 19 19 19 19 19 19 19 19 19 19 19 19 19 19 19 19 19 19 19 19 19 19 18 18 18 18 18 17 17 17 17 17 17
Height
755 771 778 777 775 767 761 757 755 753 749 754 761 765 770 781 788 784 783 780 776 790 798 795 799 800 799 797 792 791 791 792 794 792 791 790 787 786 788 787 786 787 786 784 786 789 791 794 796 799 801 803 804 806 808 810 811 813 814 816 818 819 820 821 823 824 824 826 827 828 829 830 830 832 833 834 835 837 838 839 840 841 842 843 844 846
756 776 776 763 758 753 749 747 745 748 749 753 761 765 769 778 784 779 779 778 772 786 798 793 798 802 797 796 792 789 792 794 793 793 793 790 789 789 789 789 787 786 784 784 786 788 791 795 796 799 801 803 805 806 808 810 812 813 815 816 817 819 820 822 822 823 824 825 827 827 828 830 831 831 832 833 835 837 838 839 840 841 842 843 845 846
769 774 764 750 744 742 743 742 742 749 753 757 760 766 773 773 779 780 776 776 774 786 799 795 798 803 796 793 791 790 792 791 789 789 791 791 792 793 794 793 790 788 786 786 786 788 791 794 796 798 801 803 805 806 808 810 812 814 815 817 817 819 820 822 823 823 824 825 826 827 828 830 831 832 833 834 835 837 838 839 841 841 843 844 845 846
778 768 750 741 739 743 747 745 747 754 756 760 761 768 774 769 778 789 782 778 776 782 793 795 799 802 797 794 792 790 789 788 787 786 787 790 792 795 795 794 793 791 789 788 787 787 790 794 796 798 800 802 804 807 808 810 812 814 816 817 817 819 820 821 823 823 824 825 826 827 829 830 831 832 833 835 836 837 838 840 841 842 843 844 845 846
769 753 738 737 741 746 754 754 755 761 764 761 758 764 768 763 770 781 778 777 780 783 784 790 808 810 801 803 800 792 789 789 789 789 789 790 791 792 793 794 795 792 788 788 788 788 789 792 795 797 800 801 804 806 808 810 812 814 815 817 818 819 820 821 822 823 824 825 827 828 829 830 831 833 834 835 836 837 838 840 841 842 843 844 845 846
758 743 735 743 748 748 756 760 757 762 769 766 757 754 754 754 759 768 771 778 795 804 788 785 816 824 805 805 807 798 796 796 795 794 792 792 792 794 797 798 799 798 793 789 787 787 788 790 793 796 798 801 803 805 808 809 811 813 815 817 818 819 820 821 822 823 824 825 826 827 828 829 830 832 833 834 835 836 838 839 840 842 843 844 845 846
750 740 739 748 752 752 757 760 754 754 768 773 758 745 744 746 752 761 768 780 800 807 785 773 803 826 817 810 809 802 802 802 799 798 796 794 794 795 798 797 798 802 800 795 790 787 787 789 791 795 797 799 802 804 807 809 810 812 814 816 818 819 820 821 822 822 823 824 825 827 827 828 829 831 832 833 835 836 837 839 840 842 843 844 845 845
745 744 746 748 752 757 761 761 751 746 764 772 751 740 745 747 750 756 761 772 779 783 785 778 787 819 828 818 810 803 805 806 801 801 800 796 795 796 797 795 794 796 797 798 796 788 786 788 789 792 796 798 801 803 805 807 809 811 813 815 817 819 820 820 822 822 823 824 825 826 828 829 830 831 832 834 835 836 837 839 840 841 842 843 844 845
741 748 752 749 755 761 759 754 744 742 759 760 743 741 746 747 750 752 755 764 763 776 803 794 782 817 835 818 810 807 807 810 805 803 801 797 796 794 795 795 793 792 792 794 795 790 787 787 788 791 794 796 799 801 803 805 807 809 811 814 816 818 819 820 821 822 822 824 825 826 828 829 830 831 832 834 835 836 837 838 839 840 841 843 844 845
741 743 743 746 756 759 753 745 738 743 754 747 740 743 744 745 748 750 757 765 766 781 803 790 781 819 841 822 814 814 810 809 804 800 799 796 794 793 793 793 792 791 791 790 790 790 789 785 785 789 792 794 797 799 802 803 805 807 810 812 815 816 818 820 821 822 822 824 825 826 827 828 830 831 832 833 834 835 836 837 838 840 841 842 843 844
737 732 733 741 748 747 744 741 737 740 744 740 744 749 751 752 750 754 758 761 779 794 788 774 771 800 829 824 813 810 804 799 797 797 796 794 794 793 792 791 790 791 791 790 788 788 790 789 786 787 790 792 795 798 800 801 803 806 808 810 813 815 817 818 820 821 822 823 824 825 826 828 829 830 831 833 833 835 836 837 837 839 840 841 842 843
738 740 741 738 736 736 741 743 738 735 736 741 750 756 765 768 763 769 770 770 797 804 778 765 765 784 818 821 806 800 793 789 792 794 793 793 793 791 790 789 788 789 791 790 788 787 789 791 787 786 788 790 793 796 797 800 802 804 806 808 811 814 815 817 819 821 822 823 824 824 825 827 828 829 831 832 833 834 835 836 837 838 839 840 841 843
747 746 742 737 733 733 745 754 748 742 740 746 754 761 779 789 788 796 795 791 802 793 768 761 770 795 818 810 797 796 791 787 788 788 788 789 789 789 788 788 787 788 790 789 788 788 787 787 785 784 787 789 791 794 795 798 800 802 805 807 809 812 813 815 817 819 821 823 823 824 825 826 827 829 830 831 832 833 834 835 837 837 838 839 840 841
761 751 740 743 743 734 743 759 764 759 753 755 758 765 784 798 808 816 805 798 796 780 764 761 778 813 823 804 794 794 790 787 786 786 787 786 786 787 785 785 786 787 788 787 786 786 786 785 784 783 785 787 789 792 794 796 798 800 803 805 808 810 812 814 816 818 820 822 823 824 824 825 826 828 829 830 831 833 834 835 836 837 838 839 839 840
774 773 752 747 749 740 741 749 754 755 754 754 747 753 773 781 795 806 797 796 792 777 772 774 793 822 824 806 794 789 787 787 787 788 787 786 785 783 783 784 786 785 785 786 784 783 784 784 784 784 784 786 787 789 792 794 797 799 801 804 806 809 811 813 815 817 819 820 822 823 824 825 826 827 828 829 831 832 834 835 836 837 837 838 839 839
770 773 748 737 738 737 741 737 734 746 758 753 740 752 768 762 766 778 778 780 778 780 795 801 808 816 808 800 792 788 791 789 789 791 789 790 787 784 786 786 787 787 785 785 785 783 784 784 784 784 784 785 786 788 790 792 795 798 800 803 805 808 811 812 814 816 818 820 821 822 824 825 826 827 828 829 830 831 833 834 835 836 837 837 838 839
773 771 744 736 737 732 737 735 729 744 760 755 752 764 761 743 749 769 776 770 767 794 822 821 820 818 807 805 798 792 797 794 793 795 793 794 792 789 792 791 790 791 788 787 786 784 785 786 786 785 784 786 786 787 789 791 794 798 800 803 805 807 811 812 814 815 817 818 820 821 823 824 825 826 827 828 829 831 832 833 834 835 836 836 837 838
770 774 748 739 748 735 726 731 731 732 743 758 766 761 747 739 746 762 782 783 779 810 837 831 831 833 825 823 811 801 805 805 802 803 801 801 801 799 798 796 794 793 790 789 786 784 785 787 789 787 786 787 786 787 789 791 795 798 801 805 808 809 811 812 813 814 816 817 819 820 821 823 824 826 827 828 829 830 831 832 832 833 834 835 836 836
759 776 758 738 746 739 724 735 747 736 731 747 754 744 747 765 771 769 783 796 797 818 841 840 836 838 836 834 824 817 817 813 810 810 810 811 810 808 804 801 799 795 792 791 788 786 785 786 789 789 788 788 787 787 789 792 794 796 800 805 809 812 812 814 815 814 815 816 818 819 820 822 823 824 826 827 828 830 830 831 831 832 833 833 834 835
753 776 775 744 735 739 737 747 761 755 740 739 743 741 746 760 770 770 774 783 793 810 831 842 844 842 838 832 827 823 818 813 811 811 812 811 809 807 804 802 800 796 794 793 790 789 786 784 786 786 787 789 788 788 789 791 794 796 799 803 806 809 810 813 816 817 817 817 818 819 819 821 822 823 825 825 827 828 828 830 830 830 831 832 832 833
751 769 780 759 740 747 756 754 755 758 753 751 756 758 756 756 761 768 768 769 780 798 816 837 852 846 829 823 822 819 816 813 809 807 809 807 804 803 801 800 799 797 797 795 792 790 786 784 784 785 787 789 789 790 789 791 794 796 799 802 804 806 806 807 811 814 817 818 818 818 819 819 821 822 823 824 825 826 827 828 829 829 830 830 831 832
759 768 778 773 763 764 762 746 738 743 747 752 758 759 761 763 768 782 789 776 774 789 801 824 852 844 820 815 816 812 813 813 807 805 807 806 803 802 800 798 798 797 797 797 795 793 789 787 785 785 787 789 791 791 790 792 795 796 798 801 802 804 804 805 807 810 814 816 816 817 817 818 819 820 821 822 823 824 825 826 827 828 829 829 830 830
756 765 775 777 771 766 754 738 734 737 737 744 752 752 754 760 768 788 804 791 781 787 789 810 844 839 815 811 811 811 813 811 807 806 807 807 804 801 800 798 798 797 797 797 796 795 793 791 789 788 788 790 792 793 794 796 797 798 798 798 799 801 803 805 807 808 811 813 814 815 816 816 816 816 817 818 819 821 822 823 825 826 827 828 829 829
756 766 776 779 770 758 747 736 734 735 739 750 754 749 751 760 763 772 782 782 787 795 793 813 843 837 815 809 809 811 812 809 807 805 807 810 806 801 801 800 799 798 796 796 797 797 795 794 792 791 791 792 792 794 797 799 801 801 800 799 799 800 801 802 804 806 808 809 811 812 813 813 813 814 815 816 817 818 820 822 823 824 825 825 826 827
767 775 780 789 791 782 773 766 758 752 752 758 757 751 750 754 756 761 767 774 791 797 793 814 841 833 813 807 808 810 810 809 808 805 807 811 809 805 803 801 802 801 798 797 797 798 798 796 794 793 793 793 793 794 796 798 801 803 804 804 802 800 800 801 802 805 806 807 808 810 810 811 812 813 814 815 816 817 818 820 821 822 823 823 823 824
769 777 780 795 811 812 808 800 786 774 766 760 757 754 751 751 755 765 774 787 801 800 795 813 832 826 813 810 811 810 810 811 809 807 808 809 809 808 805 804 805 804 803 800 798 799 800 798 796 795 794 794 793 794 795 796 799 801 804 806 805 802 800 800 800 802 804 806 807 808 809 809 809 811 812 813 814 815 817 818 819 820 820 820 820 821
768 775 776 785 796 799 797 787 773 769 770 766 762 757 755 753 756 764 779 792 796 798 807 815 817 820 820 815 814 812 810 811 810 809 810 810 809 809 807 807 807 805 805 803 798 798 800 799 798 797 796 796 794 794 795 796 798 799 801 804 805 803 800 799 799 800 802 804 805 807 807 807 808 809 810 811 812 814 814 815 816 817 819 819 819 820
771 779 776 776 777 775 773 768 760 760 765 765 763 762 760 758 759 767 779 784 782 797 819 814 805 817 822 813 813 813 809 810 811 810 811 811 810 810 808 808 808 806 806 804 800 799 800 801 800 798 798 797 796 796 795 796 797 797 799 802 804 803 800 798 799 800 802 803 804 805 806 806 807 808 809 810 811 812 812 812 813 814 816 817 817 818
772 781 774 772 774 767 762 760 757 759 760 760 762 764 762 761 765 770 773 774 778 798 814 807 803 813 814 809 811 810 807 810 811 809 810 810 810 811 810 809 809 808 807 805 804 801 800 801 801 800 800 798 798 798 797 796 796 795 796 800 802 802 800 799 799 800 801 803 804 805 804 805 805 806 808 809 810 811 811 810 811 811 813 814 814 815
768 778 771 771 775 770 764 761 757 758 762 761 761 763 762 763 765 766 769 773 781 794 800 798 805 811 806 806 808 805 806 808 808 808 809 809 811 811 811 811 809 808 807 806 805 803 801 801 800 800 800 800 800 800 799 799 798 796 796 797 799 800 799 800 800 800 800 801 804 805 804 804 805 805 807 808 809 809 808 809 809 809 810 810 811 812
766 775 768 768 777 776 767 761 757 757 763 764 764 762 762 766 767 766 770 777 784 793 793 794 809 816 806 801 804 805 806 807 808 810 810 811 812 812 812 812 810 809 808 806 805 804 803 801 800 799 800 801 801 800 800 801 800 799 797 795 795 796 797 799 800 801 801 802 804 805 805 805 805 805 806 806 807 807 806 807 808 808 809 808 808 810
767 772 767 769 785 784 769 763 760 756 759 765 766 765 764 766 768 769 772 776 781 790 793 798 812 817 807 801 804 806 807 809 811 811 811 812 812 812 813 813 812 811 809 808 807 805 803 802 801 800 800 801 802 801 801 801 800 800 797 795 795 795 796 798 800 803 805 805 806 806 805 805 805 805 805 805 805 805 805 806 807 807 808 807 807 808
766 771 770 776 791 787 771 767 764 760 772 780 772 766 766 764 765 770 774 774 775 783 794 805 811 808 801 802 807 809 810 811 812 810 811 812 811 812 813 813 813 813 811 810 809 806 804 803 803 803 802 802 803 802 802 802 801 801 800 799 798 797 798 800 802 805 807 806 806 805 804 804 804 804 805 804 805 805 805 805 806 806 807 807 807 807
762 767 770 774 788 790 777 770 769 776 793 791 766 754 760 762 765 772 777 776 776 781 790 798 800 798 798 802 806 809 810 809 809 808 809 810 810 812 812 812 813 813 812 811 810 808 807 806 805 805 804 804 805 804 804 803 803 803 803 802 801 800 800 801 802 804 805 805 805 804 803 802 802 804 805 805 805 805 805 805 805 805 806 806 806 806
761 766 769 772 781 785 777 779 795 801 791 772 755 749 753 756 760 768 775 774 774 780 788 793 796 797 799 801 803 805 807 807 808 808 807 808 809 810 811 812 813 813 813 812 810 810 809 809 808 807 806 806 806 805 805 806 805 805 805 804 804 803 803 802 803 803 804 803 803 803 803 803 803 804 806 806 805 805 805 805 804 805 805 805 805 805
759 767 772 774 780 784 784 793 807 798 772 758 757 754 753 756 761 772 784 783 777 780 787 792 796 798 799 802 802 803 806 806 808 809 808 807 808 808 810 812 812 812 812 811 811 811 810 810 810 809 807 807 807 807 807 808 807 808 807 806 805 806 806 806 806 805 805 805 805 805 805 806 806 806 807 807 805 805 805 805 804 804 804 804 804 804
751 763 771 777 781 784 790 794 789 781 777 775 769 760 757 762 765 774 790 792 781 780 786 790 796 799 799 802 802 802 804 808 813 814 809 807 808 808 809 810 811 812 811 810 811 811 810 811 810 810 809 808 808 809 809 809 810 809 808 807 807 807 808 808 807 807 807 807 808 808 808 808 808 808 808 807 806 805 806 805 805 804 804 803 803 803
746 755 766 777 781 779 789 798 793 793 797 789 773 759 753 757 758 764 785 796 786 782 786 789 794 798 798 800 802 802 805 812 820 818 810 808 808 807 808 810 810 811 811 811 812 811 810 811 810 810 811 811 810 810 810 811 812 811 811 809 808 808 808 808 808 807 807 807 808 809 810 809 808 809 808 807 806 806 806 806 806 805 805 804 803 804
747 752 758 772 780 780 791 806 806 802 796 782 768 757 751 754 754 761 789 806 792 782 785 788 792 795 796 799 801 802 807 816 822 817 809 807 807 806 808 810 810 811 812 812 812 811 811 811 810 811 813 814 813 811 811 812 812 812 813 812 809 808 809 809 808 808 808 809 808 810 812 812 810 810 810 809 807 807 807 807 807 807 807 806 805 805
757 759 763 774 782 781 789 800 798 792 784 772 763 757 752 750 753 773 806 812 790 780 785 787 790 793 793 796 799 802 807 812 814 811 806 804 805 806 807 809 810 811 812 812 813 812 812 812 810 811 814 816 814 812 811 812 813 814 815 813 810 809 809 810 810 809 811 811 810 812 814 814 813 812 810 809 809 808 808 808 808 808 808 808 808 807
768 766 768 775 780 781 787 794 791 784 775 765 760 755 749 752 767 791 808 797 780 781 784 783 788 791 790 793 797 800 802 801 801 804 803 803 805 806 807 809 810 810 812 813 813 812 813 813 811 811 816 817 814 811 811 812 813 814 814 813 811 810 810 811 811 811 811 812 813 815 816 816 815 813 811 811 810 809 810 810 810 810 810 810 810 809
776 774 772 774 778 779 783 788 790 786 772 761 759 755 752 766 788 796 787 776 776 782 782 782 787 789 789 792 795 797 799 798 798 802 803 803 805 806 807 808 809 810 811 812 814 814 814 814 812 813 818 818 814 812 811 811 813 814 814 813 813 813 813 813 814 814 814 815 816 817 818 817 816 814 813 812 811 810 811 811 811 811 811 811 811 810
774 778 779 776 776 778 782 787 795 795 775 758 760 763 764 774 785 779 772 773 776 778 780 784 787 787 789 793 794 796 798 798 800 802 802 803 805 805 807 808 809 810 811 812 814 814 814 814 814 815 818 817 814 812 811 813 814 815 815 815 815 816 817 817 818 819 818 818 819 819 818 818 817 816 815 814 812 811 811 811 812 812 812 812 812 812
771 777 782 779 777 784 793 793 789 783 767 756 762 771 771 769 769 767 770 774 774 776 780 784 785 786 788 790 793 796 798 799 801 802 802 804 805 805 807 808 809 811 811 812 813 814 814 815 814 815 816 815 813 814 814 814 815 816 816 817 818 818 819 819 820 821 820 820 820 819 819 819 818 817 816 814 813 812 812 812 813 813 814 814 814 814
768 767 774 776 774 777 783 781 772 765 761 758 761 766 766 764 763 764 767 770 773 776 778 780 784 785 785 788 793 795 797 799 801 801 801 803 804 806 808 809 810 811 812 812 814 814 815 815 815 815 815 815 815 816 815 815 815 816 818 819 820 820 820 821 821 821 821 820 820 819 819 819 818 817 816 815 815 814 814 814 814 814 815 815 815 815
759 757 764 768 768 767 769 767 762 761 761 760 760 761 762 762 762 762 765 769 771 773 774 777 781 783 784 788 791 794 797 799 799 800 801 802 804 806 807 809 810 811 812 813 814 815 815 816 816 816 816 817 817 817 816 816 817 818 820 822 822 822 822 822 822 821 821 820 820 819 819 819 818 818 818 817 817 817 816 817 816 816 817 816 816 817
758 758 763 765 768 772 775 769 762 760 761 760 761 761 760 760 761 761 764 768 769 770 773 776 778 781 784 787 789 793 796 797 798 801 801 802 804 806 807 810 811 812 813 814 814 815 816 816 817 817 817 817 818 817 818 818 819 820 822 823 823 823 823 822 822 822 821 820 820 820 820 820 820 820 820 820 820 819 819 819 819 818 818 818 818 818
760 760 766 767 766 769 772 766 759 757 758 757 760 762 761 762 762 761 762 765 767 769 773 775 777 781 784 786 789 792 795 796 798 800 801 802 805 806 808 810 811 812 813 814 815 816 817 817 818 818 818 818 819 819 820 821 821 823 824 824 824 824 823 823 823 822 822 822 822 822 822 822 822 822 822 822 822 822 822 821 821 820 820 820 820 819
758 764 770 769 768 769 768 763 759 761 762 759 759 760 760 761 762 762 763 765 767 770 773 775 778 780 782 785 788 790 794 796 797 798 801 803 805 806 809 810 811 813 814 815 815 817 817 818 819 819 819 820 821 822 822 823 824 825 825 826 826 825 824 824 823 823 823 823 823 824 823 823 823 823 823 824 824 824 824 823 823 822 822 822 821 821
759 766 767 766 772 774 768 761 760 764 768 764 759 759 759 759 761 764 765 766 768 771 774 777 779 781 782 784 786 789 793 795 795 798 801 802 804 806 808 810 812 813 814 815 817 818 818 819 820 821 822 823 823 824 825 825 826 827 827 827 827 825 825 825 824 824 825 824 825 825 825 825 825 825 824 825 825 825 826 825 825 824 824 824 823 823
756 760 760 764 771 769 761 756 755 760 765 763 758 757 758 758 761 765 766 767 769 770 771 776 780 782 784 785 786 788 791 793 795 797 800 802 804 806 808 810 812 814 815 817 817 818 819 820 821 822 823 824 824 825 826 826 827 827 827 827 827 826 826 826 826 826 826 826 826 826 826 826 826 826 826 826 826 826 827 827 826 826 825 825 825 825
Wind_Speed
5 3 4 6 7 10 11 12 10 9 5 6 4 4 5 8 5 7 7 8 10 5 3 6 6 6 7 6 5 4 5 4 4 4 3 3 2 2 4 5 7 6 5 10 15 18 18 17 20 19 17 18 21 24 25 26 26 26 27 26 25 24 22 21 21 23 23 21 20 19 18 18 20 22 22 21 21 21 20 18 17 16 16 17 14 10
6 4 6 10 12 14 12 11 8 4 4 2 2 4 3 7 7 8 9 10 9 4 3 6 8 5 5 5 5 5 4 4 4 3 2 2 1 1 3 3 5 5 6 8 12 18 18 18 21 20 17 18 21 25 26 25 26 27 27 26 26 25 23 22 22 22 21 20 21 20 19 20 21 22 21 21 21 20 19 18 18 16 16 18 16 13
6 6 9 11 9 8 5 3 2 4 5 4 3 3 0 6 9 7 9 12 8 2 4 6 7 5 5 5 5 6 5 4 4 2 1 3 2 2 3 1 2 4 5 7 8 14 17 17 21 20 18 19 22 24 25 25 25 26 25 25 26 26 24 23 23 23 20 19 19 17 18 21 22 21 21 20 20 19 18 19 19 16 17 19 18 15
4 6 7 4 2 5 7 9 8 4 3 3 4 3 1 7 10 5 7 13 8 3 7 6 5 4 4 4 3 4 4 2 1 1 3 3 3 1 3 3 5 6 6 7 7 11 15 16 19 19 18 20 23 22 23 26 25 25 25 24 25 25 24 23 23 22 21 21 20 17 15 18 20 18 18 19 19 20 20 20 19 17 17 18 19 16
5 6 2 4 7 6 5 6 7 5 3 4 5 5 4 6 10 9 8 11 6 3 10 9 4 1 3 4 3 1 1 1 3 5 4 3 4 5 6 5 3 4 4 6 6 8 13 15 17 19 18 20 23 21 22 25 24 25 26 24 24 24 23 23 22 20 20 21 21 21 19 19 21 19 19 21 21 22 22 21 20 18 17 17 18 16
5 3 5 5 6 3 1 3 4 3 3 4 6 8 9 5 8 15 13 10 6 2 9 10 4 1 2 4 3 1 3 2 4 4 4 4 3 5 7 7 7 8 7 4 6 7 12 16 17 19 19 20 21 20 21 23 23 25 27 25 23 23 23 22 21 20 19 18 18 23 23 21 23 22 22 23 22 23 23 21 20 18 16 16 15 13
2 2 4 1 4 4 3 4 5 5 4 4 5 6 7 6 5 15 16 10 5 4 9 9 4 1 2 3 1 1 2 0 3 3 4 4 3 3 5 2 2 4 8 7 5 6 11 16 17 17 18 20 21 21 22 21 22 26 27 25 24 23 22 22 21 20 20 18 18 22 22 21 23 22 22 23 22 22 22 21 20 17 17 17 14 13
4 3 3 2 2 4 4 4 6 6 4 3 6 9 8 7 3 6 8 5 3 5 5 6 3 5 2 1 1 2 2 1 3 3 5 5 4 1 4 1 2 1 3 6 8 6 9 15 17 18 18 19 21 21 23 22 23 28 27 25 24 22 21 23 21 20 21 20 19 18 18 20 23 20 21 23 22 21 22 22 20 18 17 17 15 15
3 3 3 1 3 3 4 2 2 2 2 2 7 9 8 7 6 4 2 2 1 6 2 7 5 5 1 2 2 2 3 2 4 3 4 5 4 1 3 3 4 2 4 4 6 9 6 16 20 20 20 20 21 21 22 23 25 28 28 25 24 22 22 23 21 19 21 22 20 18 17 19 19 19 20 21 22 21 22 23 20 18 19 16 16 16
0 2 3 1 3 1 4 5 4 3 2 4 7 6 5 4 4 3 2 2 4 4 2 8 8 5 1 3 2 1 2 4 4 4 6 6 4 3 2 4 4 3 4 5 4 10 8 15 22 21 21 20 20 21 20 22 27 29 28 26 25 23 22 24 22 20 22 22 21 19 18 19 18 18 18 18 22 20 19 23 20 19 21 16 15 17
2 2 2 1 2 0 2 4 0 1 4 1 3 4 4 4 3 3 2 1 2 1 5 8 7 8 2 3 3 2 2 4 5 4 5 6 6 5 4 5 5 3 3 6 6 8 10 11 21 22 21 20 20 22 20 22 27 29 29 27 26 25 22 24 24 21 21 22 23 20 19 20 19 19 19 17 21 20 18 23 20 19 22 18 16 17
5 4 2 2 3 2 2 3 1 3 4 3 3 2 2 4 2 1 4 2 1 4 6 6 5 10 4 3 4 3 2 4 5 4 6 8 8 7 6 5 5 5 4 6 6 5 9 9 17 18 20 22 21 21 21 24 27 28 29 27 27 26 22 23 25 23 22 22 22 21 19 21 20 19 21 18 19 20 18 20 19 18 21 20 18 17
4 6 5 4 2 1 1 3 3 3 5 3 4 3 1 1 1 2 2 1 3 6 8 6 9 9 3 2 4 5 3 3 3 1 3 6 6 7 7 7 6 5 5 5 4 2 6 6 11 15 19 22 21 21 22 24 26 26 28 27 27 27 24 24 26 24 23 22 22 22 19 21 21 19 22 21 18 20 19 18 19 18 20 20 19 19
2 5 6 6 3 1 3 2 2 3 5 4 4 3 4 1 1 2 3 3 3 4 3 7 12 6 0 2 4 5 4 3 3 3 2 1 3 4 6 6 6 5 5 5 4 3 3 5 1 11 20 23 21 22 22 24 27 26 28 28 27 27 24 24 27 25 25 22 21 23 19 20 23 20 21 23 20 19 20 19 18 18 19 21 19 20
2 4 4 4 4 3 5 3 0 2 4 5 5 2 3 2 2 3 3 1 2 2 4 8 7 3 3 2 1 3 4 4 5 2 0 1 2 3 5 5 6 5 4 4 4 2 0 5 9 3 16 24 22 22 23 24 26 26 27 28 27 27 25 24 26 25 25 24 21 22 20 18 22 20 19 23 22 19 20 19 18 17 18 20 19 18
1 2 3 6 7 6 4 1 1 3 3 4 3 2 1 3 2 2 1 1 2 0 5 5 2 2 2 1 1 2 3 4 4 3 1 1 2 1 2 2 2 1 1 2 3 1 3 5 12 13 5 19 20 23 24 24 26 26 27 28 26 26 25 24 26 25 25 24 22 22 21 18 20 20 18 20 20 19 19 20 19 18 18 19 19 18
4 2 1 4 7 6 1 2 2 3 2 3 3 2 4 6 1 2 2 4 1 4 4 3 3 4 1 2 3 2 2 3 3 3 4 4 4 4 4 4 4 3 3 2 2 1 4 6 10 15 10 6 16 22 22 24 25 23 24 27 26 27 25 22 24 24 24 24 22 21 21 19 19 19 18 18 18 18 19 19 19 19 19 19 18 18
3 4 4 2 1 2 3 1 4 3 2 2 2 3 5 6 4 3 1 4 2 5 3 3 4 2 1 2 4 5 6 6 6 7 6 7 8 7 6 6 6 5 4 4 3 3 6 9 11 12 13 9 10 18 18 21 20 15 15 15 16 21 23 23 23 23 23 24 22 21 21 20 19 19 19 18 17 17 18 18 18 19 19 20 19 19
4 3 2 2 1 3 3 0 3 4 3 3 4 5 3 3 3 2 1 1 2 4 2 2 3 2 2 1 2 6 8 8 10 10 9 11 10 8 7 7 7 6 5 4 4 5 6 9 11 10 13 13 8 11 12 15 17 16 15 11 9 12 14 15 18 21 22 23 22 21 20 21 19 18 18 18 17 18 18 18 20 20 20 20 19 18
2 2 2 3 1 5 4 2 1 4 4 5 4 4 3 2 0 1 1 2 2 2 3 4 2 1 1 2 3 4 6 6 7 7 6 6 5 4 3 3 4 4 5 4 3 4 4 7 11 12 12 13 9 9 10 10 14 17 16 13 12 13 15 12 9 12 16 19 20 19 19 20 20 18 18 17 18 19 19 19 19 20 21 20 19 18
1 2 2 5 3 3 1 2 2 1 1 3 3 1 2 2 4 3 1 1 1 1 3 4 2 1 2 3 3 2 4 2 2 4 5 3 1 2 2 2 3 3 4 4 3 3 3 6 12 14 12 12 11 8 6 6 10 15 15 13 11 13 21 21 13 11 11 13 16 17 18 19 19 19 18 17 18 19 20 19 19 19 20 19 19 19
2 1 1 4 4 4 4 2 1 5 4 1 1 2 3 3 4 3 3 4 2 2 2 4 3 1 2 1 2 2 2 2 1 0 3 3 1 1 1 2 3 4 4 6 6 5 5 6 9 13 13 14 15 11 7 5 8 13 13 12 12 13 19 19 16 16 15 13 14 14 17 19 19 19 18 17 15 14 15 15 16 18 18 18 19 20
3 1 1 3 3 4 9 6 4 7 6 5 4 3 3 3 4 4 1 3 3 4 3 5 5 2 3 1 1 2 1 1 2 2 3 4 3 3 2 3 3 5 6 5 6 6 7 9 7 10 13 15 19 19 13 8 7 10 12 12 12 13 15 14 13 14 14 15 14 11 11 15 17 18 19 18 14 12 12 11 10 12 13 14 16 18
4 2 3 5 3 4 10 6 3 5 4 3 2 4 3 1 3 4 3 1 3 3 3 6 3 2 3 3 3 3 2 1 2 3 5 5 3 5 5 4 5 6 6 5 5 6 5 6 6 8 11 13 17 20 18 14 11 8 5 6 10 12 15 15 14 13 12 14 15 12 8 10 15 18 20 21 18 15 13 12 11 10 12 13 11 13
1 3 4 4 3 4 6 5 3 4 3 1 2 3 5 5 4 4 3 3 4 4 4 5 1 2 3 4 4 5 4 3 1 3 5 5 3 5 7 7 7 7 7 7 7 7 5 3 5 9 11 12 13 16 18 17 14 12 12 7 2 8 12 13 13 13 12 12 14 14 11 11 14 16 17 19 19 18 15 13 11 10 12 14 15 16
1 1 2 2 2 2 2 2 3 3 3 2 2 5 6 2 5 5 4 4 2 3 4 4 3 2 4 4 4 4 5 5 3 1 4 6 5 6 7 7 7 6 6 7 8 7 6 5 8 11 12 11 10 11 15 15 13 11 8 9 8 4 5 7 9 12 11 10 11 13 13 13 14 14 13 14 16 17 15 12 11 10 11 12 14 15
1 2 2 2 2 3 4 5 6 6 5 3 4 7 7 7 6 4 5 3 3 2 4 3 6 7 6 6 5 4 4 5 4 3 4 6 6 7 6 6 6 5 5 5 6 7 7 7 9 12 12 10 7 6 7 9 10 10 8 7 8 5 5 4 5 9 9 7 8 11 12 13 12 13 12 12 12 13 13 12 13 13 13 13 11 8
2 1 3 7 6 6 7 8 7 7 6 5 6 7 7 7 7 4 4 2 4 5 3 1 7 9 7 6 6 5 4 5 4 4 4 5 7 7 6 5 6 6 6 6 6 7 7 7 8 11 13 12 10 9 8 5 4 3 4 3 2 4 7 6 4 5 5 4 5 8 9 9 8 10 10 10 10 11 13 14 14 14 14 16 16 12
2 1 3 6 8 9 8 8 9 9 7 4 5 7 6 6 6 4 3 4 6 7 3 3 7 8 6 7 7 5 5 6 5 5 5 6 7 7 5 6 6 6 6 6 6 6 6 6 6 9 13 14 13 13 11 8 3 2 5 6 3 4 6 7 6 6 5 3 3 4 5 5 5 7 8 8 8 10 12 14 14 14 15 16 18 18
3 2 4 5 7 9 9 11 14 12 6 3 4 5 5 5 6 5 2 7 11 10 7 8 9 6 4 7 7 5 5 7 5 4 5 5 7 7 5 4 5 5 6 6 6 6 5 6 7 9 12 13 13 13 12 10 6 1 4 4 1 1 2 4 5 6 6 5 3 3 2 2 2 3 5 5 6 7 9 11 13 13 13 13 15 16
2 3 3 3 4 6 9 11 9 6 4 4 5 5 3 2 4 5 2 9 12 9 7 10 10 5 3 6 8 6 5 6 5 4 5 5 6 6 5 4 4 4 5 5 5 5 5 5 7 9 10 11 12 11 10 10 10 6 1 2 2 2 3 2 3 2 3 4 4 3 4 3 2 1 2 3 4 5 6 7 9 11 11 11 11 11
3 2 1 2 2 4 7 8 7 4 4 5 3 3 4 5 5 2 3 4 7 8 7 8 7 4 3 6 7 7 6 6 5 5 5 5 5 6 5 4 4 4 4 5 5 4 4 5 6 8 10 11 11 10 9 10 11 10 5 3 5 5 3 4 3 2 2 1 2 3 4 3 1 0 1 2 2 3 5 6 7 8 9 9 9 8
4 3 2 1 2 4 6 10 11 7 3 2 1 4 6 3 3 7 7 6 8 7 5 5 4 5 6 7 7 7 6 6 5 4 4 5 5 6 6 5 4 4 4 4 4 4 4 4 6 8 9 10 9 8 8 11 12 12 11 9 9 8 9 11 11 7 2 1 3 2 2 3 2 1 2 3 2 2 3 4 5 6 6 7 8 9
4 3 3 3 0 4 7 12 12 3 3 2 3 4 7 6 6 7 8 10 11 9 7 7 7 7 7 7 8 8 7 6 5 4 5 5 5 6 6 5 5 4 2 2 3 4 5 5 6 9 10 11 11 10 10 12 14 14 14 14 13 13 13 14 15 14 11 8 4 3 3 3 1 2 2 3 2 2 2 3 3 3 3 5 6 7
3 2 1 2 1 3 4 6 7 3 3 5 2 5 7 7 8 9 8 9 11 13 14 11 9 8 7 8 9 8 7 6 6 5 5 5 5 6 6 5 5 5 2 2 2 4 5 5 6 8 11 12 13 14 15 14 15 17 17 17 17 16 16 16 17 17 17 15 12 10 8 5 4 4 2 2 1 1 1 1 1 3 3 3 4 5
4 4 2 0 1 2 2 1 2 3 2 3 4 6 5 6 7 8 8 8 8 13 14 11 9 9 9 9 9 8 8 8 6 5 4 5 5 5 5 5 5 4 2 1 1 4 6 6 7 8 11 12 12 15 16 15 16 17 18 19 19 18 17 17 18 19 19 18 16 15 13 11 9 8 6 5 6 7 7 6 5 6 6 6 6 6
5 4 2 1 2 2 0 2 3 1 2 2 3 2 3 5 6 7 5 5 6 10 11 10 11 11 9 10 9 8 9 7 5 3 3 4 5 5 5 5 5 4 3 2 3 4 6 7 7 9 12 13 12 13 15 16 19 20 19 20 21 20 20 20 19 19 20 20 20 17 16 15 14 13 12 12 13 13 12 11 12 11 10 11 11 10
7 5 4 4 2 1 3 3 4 2 1 2 3 1 3 6 9 11 7 2 4 8 11 10 11 11 10 9 10 9 8 6 4 3 4 5 6 5 6 6 6 5 5 5 4 4 5 7 10 11 11 13 13 13 13 15 17 19 19 19 20 21 21 21 21 20 20 21 21 20 18 17 17 17 16 16 16 15 14 15 16 15 15 17 17 17
6 6 5 4 2 2 3 1 3 3 2 4 5 2 5 6 7 10 7 1 1 7 11 11 10 10 10 10 9 8 6 4 4 4 4 5 7 7 6 6 6 5 4 4 5 4 3 5 10 11 10 12 14 14 14 15 17 18 18 18 19 21 21 20 19 20 19 19 20 19 18 17 17 17 18 19 19 18 17 16 16 17 18 20 20 21
1 3 5 4 2 2 2 2 3 2 3 5 6 2 6 6 5 8 4 4 3 6 9 10 10 9 9 9 9 6 4 4 5 5 5 5 7 10 10 9 8 6 4 3 3 4 2 4 9 9 7 10 14 14 15 16 17 17 17 17 19 21 20 19 19 17 16 17 18 18 16 16 17 18 19 20 21 21 20 18 18 18 19 19 19 20
3 1 3 3 4 4 4 4 2 2 2 2 3 2 5 6 6 4 4 5 4 7 8 8 8 7 7 7 6 4 2 3 5 6 6 6 7 9 13 13 10 7 4 3 2 4 3 4 8 10 6 8 14 16 16 17 18 17 17 18 19 19 18 19 20 19 18 17 16 15 15 16 18 19 20 21 21 22 22 20 20 19 18 19 19 20
3 2 1 2 1 2 3 3 1 1 2 1 3 5 5 5 3 3 4 5 7 8 7 7 7 6 6 6 5 5 4 6 8 8 6 6 6 7 11 13 11 9 7 4 5 8 8 7 11 13 10 10 15 17 17 19 19 19 19 19 19 17 15 16 17 18 19 18 16 15 15 16 17 18 19 20 21 22 22 21 21 20 19 19 20 20
1 2 1 1 1 1 2 3 1 2 4 2 2 5 5 2 4 5 4 7 8 8 7 7 7 6 6 6 7 8 8 8 8 8 7 7 7 8 11 12 11 9 8 6 8 12 12 12 14 15 12 13 16 17 17 18 18 18 19 19 17 16 15 15 14 14 15 16 17 17 17 18 19 19 19 18 19 20 21 20 20 20 20 20 21 21
0 1 1 1 2 1 1 2 3 3 2 2 5 3 1 3 5 5 6 7 7 7 6 6 6 6 7 8 9 9 9 9 8 7 7 7 7 8 10 11 11 9 9 10 12 14 13 13 15 15 14 14 15 14 14 16 16 16 17 17 15 14 14 14 14 14 14 15 17 17 17 18 19 20 21 20 19 19 20 19 19 19 19 19 19 19
2 3 3 2 2 2 3 3 5 4 1 6 7 5 5 6 5 6 6 7 7 6 6 6 6 7 8 9 10 9 8 9 8 7 7 8 8 8 9 11 12 13 13 14 14 14 14 14 14 14 14 13 13 13 14 15 15 14 13 13 13 13 13 12 13 15 16 17 17 17 16 16 16 17 19 21 21 19 18 17 18 19 19 18 18 18
1 3 3 2 1 2 2 2 4 2 4 7 6 5 6 6 6 5 5 7 7 7 6 6 7 8 9 9 9 8 7 8 9 7 7 9 9 8 10 13 13 13 14 14 15 15 15 15 15 14 14 13 12 13 14 15 16 15 12 11 10 11 11 11 12 12 13 15 16 17 18 19 18 17 18 19 21 21 19 17 17 17 17 17 17 17
3 1 1 1 2 3 0 4 3 3 5 7 7 5 5 5 4 4 6 7 8 8 7 7 8 9 9 8 8 9 8 9 9 7 6 8 8 8 10 12 12 13 14 14 14 15 16 16 16 15 16 15 14 14 13 13 14 14 12 11 10 10 9 10 11 12 12 12 13 15 17 20 20 20 20 19 19 20 21 20 19 18 17 16 16 16
1 3 3 3 2 3 3 5 3 2 4 8 8 4 4 5 5 7 8 7 8 9 9 8 8 8 8 7 8 10 9 8 7 7 7 8 8 9 10 11 12 13 14 15 16 16 15 15 15 15 16 16 15 15 14 13 12 11 10 9 9 10 10 10 11 13 13 12 11 11 13 15 16 17 18 18 18 19 19 20 21 21 20 18 17 17
3 3 1 4 1 2 2 4 2 3 4 8 8 4 4 6 7 8 9 8 9 10 10 10 10 9 8 7 8 10 10 8 7 9 9 7 7 9 12 13 13 15 16 16 17 17 16 15 14 14 15 14 14 14 14 13 12 11 10 9 9 11 13 12 12 13 14 15 13 11 11 10 11 12 13 14 15 16 17 17 18 19 19 18 18 17
5 4 4 4 1 0 3 4 4 4 4 5 6 6 6 8 9 8 8 8 8 9 10 10 10 10 10 10 10 10 8 7 8 11 10 8 10 13 15 15 15 15 15 15 16 15 15 15 14 14 14 13 12 13 12 12 12 11 10 10 10 12 14 15 14 13 14 15 15 13 11 10 8 8 8 9 9 11 13 13 14 15 15 15 15 15
3 3 2 2 1 2 2 4 5 5 3 3 6 8 7 7 9 7 6 7 8 7 8 11 10 9 9 9 11 12 8 7 12 14 10 9 14 18 17 16 15 15 15 15 14 14 15 15 14 14 13 13 12 12 11 12 12 11 11 10 10 12 14 14 13 12 11 11 13 13 12 11 10 8 7 6 4 5 7 9 9 10 11 11 12 12
Wind_Direction
185 197 218 219 228 232 231 220 230 270 255 172 191 247 171 139 137 150 150 165 166 146 124 129 113 118 138 170 190 177 187 210 262 282 324 315 288 129 177 184 151 154 167 166 158 148 151 152 147 150 150 149 147 145 144 144 147 149 148 148 150 152 158 160 158 162 163 160 164 169 169 171 173 176 177 178 181 180 182 187 187 186 183 176 172 181
184 204 232 229 229 233 236 225 225 312 355 126 222 275 173 135 146 158 154 169 178 145 118 135 119 122 145 166 189 178 188 217 224 247 305 0 47 238 236 179 152 174 167 165 154 145 152 152 145 150 155 152 144 142 144 144 145 148 149 151 152 155 160 164 163 165 169 168 166 167 172 172 170 175 179 177 179 180 183 193 191 187 186 181 180 184
187 222 238 238 246 251 267 303 336 22 16 355 311 302 8 133 141 155 159 168 184 135 128 151 127 136 169 171 185 180 190 232 222 215 1 42 81 212 273 42 169 208 172 164 154 145 153 152 146 153 160 155 145 143 146 147 147 150 153 155 155 157 161 165 167 167 172 177 171 164 166 171 173 178 181 176 175 178 188 193 187 188 193 186 185 185
208 241 232 209 24 9 10 2 350 350 348 308 291 310 288 157 148 157 171 172 191 153 140 151 116 129 165 152 172 184 183 214 271 22 53 57 57 31 300 269 210 208 181 171 161 148 154 154 149 156 162 153 148 148 149 150 151 155 160 160 158 160 164 168 172 173 172 175 177 168 164 174 178 180 183 182 181 182 184 183 182 191 196 189 189 188
247 268 286 55 40 22 12 345 318 317 319 279 268 271 252 195 161 158 171 170 171 136 143 136 87 99 167 140 178 190 96 58 27 10 11 31 35 26 354 320 272 248 207 175 173 162 156 155 152 159 163 151 151 157 155 153 156 160 164 165 163 163 168 173 175 175 173 173 175 169 170 176 173 176 185 183 178 177 178 179 183 193 196 190 189 189
244 313 15 27 6 337 229 265 264 256 272 270 262 250 252 250 158 154 162 156 130 128 171 150 99 292 195 148 173 62 52 29 20 356 328 339 13 45 34 4 353 337 308 228 189 171 153 156 157 160 163 154 156 166 162 160 162 163 166 168 169 169 172 176 174 173 174 175 171 164 166 167 160 164 178 176 170 172 178 180 183 193 195 187 185 188
219 39 41 33 316 290 233 244 232 205 211 253 283 284 276 276 187 158 156 160 151 170 195 183 123 90 128 92 24 29 92 2 1 350 310 314 319 72 76 48 11 347 316 300 253 195 158 160 159 159 166 161 162 171 169 167 167 166 167 169 174 176 176 175 172 176 176 172 169 164 164 166 162 162 170 174 173 174 178 180 184 193 190 183 189 194
206 181 138 154 263 259 243 234 212 201 198 244 326 343 343 341 352 127 138 185 196 126 176 208 123 88 125 117 291 221 146 257 306 317 308 311 310 9 94 153 235 199 291 301 284 247 169 160 162 163 169 167 167 173 172 170 168 166 168 171 176 178 178 176 175 180 179 172 169 166 164 168 171 170 170 174 177 177 180 181 184 191 184 182 194 197
217 173 119 144 239 230 271 281 145 176 207 37 5 345 343 0 3 30 84 288 350 83 151 209 139 81 251 241 284 202 152 218 242 247 269 277 287 291 130 188 254 249 234 256 286 282 210 164 163 166 170 171 172 175 175 173 167 166 169 173 177 178 179 181 179 179 180 175 168 164 165 168 172 175 175 177 180 184 186 184 182 184 184 188 194 194
147 81 97 290 267 160 319 327 56 28 308 15 2 318 309 329 321 334 353 350 22 59 215 211 164 124 261 274 296 231 187 199 204 207 223 233 239 236 172 192 233 260 258 260 280 286 254 167 160 168 172 172 173 176 179 173 166 166 169 172 177 179 180 183 183 180 180 178 173 170 172 173 174 179 180 179 183 187 184 180 179 181 187 192 191 192
173 131 140 258 292 81 304 293 318 276 266 301 318 286 302 299 279 323 337 64 40 324 246 235 183 136 135 256 220 225 232 176 173 196 204 206 212 222 212 192 211 226 248 269 268 283 279 190 169 171 171 170 175 183 180 165 163 167 168 172 177 181 183 183 184 184 182 181 180 179 178 178 178 180 183 180 183 186 179 175 177 183 190 192 188 192
192 145 153 220 245 241 243 273 245 237 251 215 200 241 314 304 248 304 341 68 146 256 240 227 132 102 104 226 199 214 229 167 168 200 204 206 208 212 216 198 204 212 213 258 266 281 289 227 182 171 166 169 176 181 174 161 162 168 170 173 177 180 184 183 185 187 185 184 185 183 182 183 181 180 184 186 183 185 182 179 182 185 189 190 191 196
200 151 169 186 189 239 235 279 256 232 257 231 191 194 175 326 194 177 306 225 208 248 233 181 99 79 61 134 160 185 188 159 160 175 187 205 207 195 203 199 194 207 209 234 250 244 287 253 186 171 165 172 177 175 171 166 166 169 172 175 178 181 184 184 185 186 185 188 190 189 185 183 186 186 187 189 186 185 187 186 188 190 188 188 193 198
191 155 175 168 145 176 208 251 274 236 247 230 205 184 155 174 213 196 233 226 235 256 217 108 90 91 107 99 149 162 131 99 94 52 61 174 220 192 191 189 182 199 214 228 244 219 279 328 201 169 165 173 182 177 171 168 167 170 174 178 180 182 185 184 184 185 186 190 192 193 192 185 188 192 190 190 192 191 192 192 192 197 195 193 197 200
183 176 188 161 145 194 208 193 126 277 256 241 236 183 130 182 216 211 223 231 281 274 78 67 74 141 184 196 204 119 96 88 97 82 53 202 250 218 197 186 177 190 208 230 249 209 284 1 8 40 168 175 180 177 172 168 169 171 175 179 182 183 185 185 185 186 187 190 191 194 199 194 192 195 192 191 195 196 198 200 200 202 202 203 204 202
321 168 133 120 155 202 228 159 45 303 292 290 298 65 82 269 232 198 241 343 286 51 58 34 45 113 158 211 351 71 79 77 102 115 72 321 294 256 202 150 130 179 242 257 256 21 38 30 19 16 142 173 176 174 172 172 172 174 177 180 183 185 187 187 187 188 189 191 192 194 200 201 198 200 196 192 196 200 203 206 207 208 209 211 210 207
0 329 151 129 170 188 110 33 303 290 299 315 351 21 285 286 351 96 329 333 6 84 46 8 72 92 81 29 14 9 70 79 92 88 52 8 356 20 33 39 30 5 355 335 291 58 43 42 32 24 37 150 180 179 175 175 176 176 178 181 183 185 188 191 190 190 192 193 194 195 198 202 203 206 206 200 199 203 205 206 208 212 214 214 213 209
12 301 259 220 190 121 81 340 283 302 5 10 326 308 307 329 23 75 33 330 27 84 49 17 62 70 339 16 348 355 24 33 34 36 28 15 8 7 19 25 15 9 1 351 1 47 55 44 34 28 31 56 159 178 174 171 172 166 162 172 184 187 189 193 193 193 195 196 196 197 198 201 203 207 210 210 208 208 208 209 210 214 216 216 217 216
349 324 257 212 192 169 162 9 290 272 240 196 250 281 315 356 347 9 65 344 66 93 96 82 71 12 0 334 321 13 21 18 30 33 22 19 8 352 9 12 356 360 355 351 19 35 62 60 43 34 29 40 103 156 155 160 171 168 162 167 182 193 198 200 200 198 197 198 198 199 201 202 203 206 209 212 214 213 213 215 216 217 218 218 223 224
321 11 283 272 185 155 156 71 330 268 238 201 232 269 251 196 340 331 154 142 106 111 125 123 115 349 330 282 307 26 34 25 48 67 56 33 3 326 353 343 322 347 352 359 35 35 71 86 68 53 35 35 76 130 132 143 170 175 178 184 185 193 196 198 218 217 206 204 202 202 205 205 205 208 209 211 215 217 216 219 225 224 220 221 225 226
285 101 268 294 350 99 155 208 196 8 41 195 219 287 303 24 41 12 338 25 43 100 120 119 121 278 246 255 302 23 71 61 84 120 122 124 202 256 295 320 336 0 357 358 11 358 28 76 77 68 54 50 70 109 126 138 174 183 191 194 192 198 192 188 201 213 215 216 208 207 209 209 210 211 214 217 220 222 218 217 228 229 220 221 228 227
0 111 285 311 334 352 327 305 29 19 25 51 32 27 29 58 77 48 345 337 20 66 103 123 130 258 258 212 295 332 70 99 271 133 109 105 115 284 351 32 18 17 19 3 349 342 354 27 69 80 77 71 67 72 98 130 162 173 181 187 191 197 193 191 193 194 204 213 210 215 214 208 209 211 215 222 229 235 229 224 232 233 224 224 229 228
21 140 321 317 310 315 304 306 25 14 2 24 16 348 23 61 96 92 18 314 15 37 58 103 110 264 264 176 179 301 19 79 292 321 80 71 7 334 2 52 55 42 41 14 344 340 345 348 17 64 74 74 67 66 81 99 119 137 149 169 189 197 199 200 195 193 204 207 205 220 222 205 202 205 211 217 227 240 244 250 256 247 242 242 239 237
4 346 334 317 302 297 292 285 90 64 17 18 332 303 336 71 127 117 134 152 54 31 53 89 95 252 231 185 159 170 170 158 281 335 66 73 14 351 359 27 54 50 52 40 351 328 328 338 1 43 58 66 66 67 69 61 42 39 77 151 177 189 193 196 193 194 204 207 206 214 222 211 205 208 215 219 223 227 234 250 260 254 257 264 265 260
351 346 338 331 340 335 322 328 30 42 2 280 221 271 257 210 146 96 79 70 51 9 44 91 140 222 173 165 152 153 147 117 34 1 57 79 50 16 11 23 40 38 37 40 15 343 331 347 21 45 57 61 67 73 74 68 49 25 11 10 93 161 176 185 190 194 198 204 207 208 210 213 209 211 219 222 221 221 223 233 241 245 254 259 262 259
165 0 350 25 36 352 331 305 293 305 298 275 325 326 313 5 80 87 81 70 59 355 30 94 154 158 139 148 142 137 132 119 117 67 72 86 79 50 30 28 33 30 26 31 27 6 359 23 34 41 53 59 63 74 81 81 75 69 49 16 19 81 147 168 186 196 197 196 205 210 209 208 206 207 217 226 227 223 221 225 231 237 240 244 253 256
73 43 330 291 227 214 224 238 251 260 270 292 335 329 343 27 49 92 101 101 160 124 51 112 151 147 153 155 138 126 121 115 114 86 65 73 77 63 47 36 33 34 25 24 36 26 11 21 33 36 42 47 47 46 65 81 77 79 86 54 38 72 109 120 175 199 201 203 219 224 216 208 207 211 218 233 239 231 228 233 242 246 240 232 235 248
88 101 283 280 268 250 241 243 252 261 274 310 341 339 352 7 6 49 95 121 146 114 68 177 147 140 155 151 135 137 127 106 97 86 73 73 76 65 49 40 36 38 30 18 31 45 38 26 26 31 30 28 33 31 25 37 60 89 148 159 76 91 110 112 132 179 194 209 228 228 221 215 216 220 224 233 240 238 237 241 246 249 244 233 228 231
104 206 251 276 284 283 275 272 277 277 282 305 317 321 325 326 335 6 50 58 93 112 147 175 131 127 144 136 123 128 116 103 102 102 96 87 82 75 54 38 32 36 38 25 16 32 51 47 33 31 28 21 26 36 37 37 37 252 226 210 183 100 110 119 127 139 143 143 161 190 213 218 219 225 228 236 243 244 245 248 252 254 252 245 237 236
110 220 246 268 287 298 300 295 282 272 284 319 298 303 330 340 333 328 23 78 94 115 137 127 107 99 121 126 120 114 105 106 113 108 101 96 92 89 74 47 33 28 36 40 30 21 30 49 49 40 34 23 18 27 37 47 61 25 265 239 165 117 112 95 105 124 124 122 133 126 121 141 177 213 224 237 246 245 245 251 255 257 259 253 241 238
126 201 239 262 287 292 286 287 275 243 241 274 269 279 288 253 287 309 30 87 93 105 123 120 110 94 91 116 120 117 103 102 106 102 96 96 99 100 94 71 46 33 32 34 38 31 18 30 46 44 34 19 12 20 31 44 63 69 319 277 27 339 300 359 23 26 65 104 136 125 109 115 115 148 216 235 244 250 248 249 254 255 254 250 244 240
160 182 277 322 316 276 271 291 297 249 237 248 247 316 304 237 209 151 84 95 106 121 126 111 110 130 139 123 118 114 108 106 110 115 104 94 98 101 96 77 45 33 30 20 20 27 19 24 41 43 32 16 9 21 40 55 68 71 67 52 46 39 35 48 50 324 300 164 163 138 114 110 129 201 296 281 252 254 249 240 245 249 250 251 250 247
180 171 129 86 327 294 304 313 296 258 224 246 159 48 12 346 122 108 95 76 77 98 116 103 115 146 142 129 120 115 119 121 123 125 115 105 101 99 102 103 84 55 24 358 347 346 357 36 53 46 35 23 19 34 61 72 76 78 78 76 74 75 72 69 75 86 112 265 283 298 43 27 11 34 347 324 315 299 270 251 248 248 254 259 256 253
180 175 142 123 99 292 312 322 312 293 137 221 248 80 62 50 63 79 91 93 88 91 105 109 119 131 130 131 131 129 130 132 130 124 117 121 118 107 105 107 107 103 67 357 350 358 11 52 69 57 48 42 41 57 73 76 78 82 83 82 78 76 74 69 67 67 67 61 40 20 20 3 22 55 357 321 319 314 289 279 281 280 278 272 267 266
125 93 64 94 144 276 311 342 335 326 182 197 182 74 77 77 70 65 72 92 107 111 110 111 117 117 113 115 119 122 125 119 110 101 91 92 105 111 111 105 102 108 90 354 0 18 30 67 80 62 57 55 56 65 71 72 77 80 80 79 77 73 71 70 65 62 61 60 59 60 59 65 85 76 28 353 24 65 59 22 0 356 351 338 322 318
119 101 70 19 225 266 332 35 255 265 225 162 104 83 89 91 84 73 55 47 82 110 116 119 119 112 110 115 118 122 125 114 98 93 90 84 86 96 108 107 103 115 138 193 72 29 26 58 84 74 66 66 66 70 71 71 75 79 78 78 78 73 70 69 64 61 59 58 59 64 66 68 74 74 70 70 69 69 64 54 46 37 30 31 23 0
151 137 116 134 218 223 188 237 244 277 8 13 30 50 78 96 110 110 87 43 70 107 120 121 120 121 124 127 128 129 127 117 104 111 127 115 103 97 98 89 73 73 70 55 63 40 26 53 87 85 72 69 73 77 79 77 77 78 78 79 78 74 68 65 62 59 59 58 58 62 67 70 69 67 67 67 65 64 63 61 58 55 55 55 48 35
158 167 151 151 194 354 31 339 309 309 278 255 240 218 79 101 119 116 107 47 57 108 123 125 127 134 137 135 140 144 141 131 130 163 175 151 133 118 107 100 88 69 47 40 46 29 25 59 87 94 83 74 74 80 85 84 79 76 74 74 76 74 68 64 63 62 62 63 62 60 60 65 67 65 64 65 66 65 63 64 66 64 64 65 62 57
166 161 131 119 123 37 51 355 297 280 239 238 234 183 89 100 117 106 99 301 285 120 127 132 136 142 144 145 150 153 153 148 152 185 193 166 145 135 126 121 118 104 79 76 73 38 15 81 97 101 103 93 84 81 84 83 79 77 73 69 69 70 67 64 63 63 62 65 67 64 59 61 67 69 67 65 67 68 67 71 76 74 70 68 69 70
83 115 97 103 153 160 150 217 282 282 232 245 255 197 112 114 104 93 105 239 217 127 126 137 145 148 149 151 152 158 171 171 172 187 184 157 141 138 136 134 134 136 149 152 101 47 36 119 100 89 103 108 94 84 81 81 80 80 79 73 68 67 65 64 65 67 65 63 65 65 62 62 67 70 70 68 68 69 71 78 83 81 76 73 73 75
356 33 118 142 171 173 179 209 235 234 223 253 305 10 96 90 76 96 181 209 160 122 124 135 140 140 141 142 145 157 161 136 144 157 155 138 130 132 136 137 139 141 141 150 122 84 85 109 90 77 80 98 90 79 74 72 69 68 71 71 68 65 64 64 65 67 67 64 65 67 64 62 64 67 68 69 70 70 71 76 80 80 78 76 75 76
326 315 37 97 150 181 192 220 223 258 286 334 30 23 42 74 109 182 182 148 126 124 128 130 130 130 133 129 124 128 122 114 120 128 136 140 131 123 127 130 132 132 121 102 103 109 106 96 88 80 67 71 78 76 73 69 63 59 60 60 61 63 65 66 68 71 74 74 73 74 71 65 64 66 65 66 68 70 69 70 73 74 74 74 73 73
320 319 342 35 350 238 225 255 221 206 261 259 75 25 16 92 177 185 148 131 135 136 131 130 132 136 137 126 119 125 128 125 127 136 147 151 136 122 125 128 133 143 145 130 115 108 97 83 83 83 74 69 72 74 77 77 71 66 62 58 60 67 71 73 77 81 84 82 78 75 72 67 63 63 64 65 68 70 71 71 72 72 71 72 72 73
292 294 265 21 347 339 252 277 246 221 254 68 93 91 89 139 161 166 147 138 138 135 131 135 143 145 139 129 126 133 136 133 138 147 147 135 125 125 126 124 119 116 113 113 116 116 107 93 86 83 77 72 70 71 77 82 80 76 71 66 66 69 72 76 80 82 83 81 76 74 75 72 66 61 61 61 64 70 73 74 75 75 73 72 72 72
204 188 171 166 233 198 159 201 235 233 129 85 100 134 141 131 155 173 151 131 133 139 140 139 140 138 132 130 133 137 138 136 142 152 142 125 121 125 123 117 111 102 95 96 103 112 117 116 111 103 95 86 75 67 67 72 75 76 76 73 69 66 69 75 80 81 81 78 74 73 75 75 70 65 63 61 61 65 70 74 77 77 75 74 72 70
262 171 161 166 171 99 100 225 236 185 115 109 116 135 139 147 176 178 132 121 130 137 136 134 135 134 134 136 137 136 139 142 149 161 151 131 127 129 124 121 118 112 106 99 95 97 101 103 105 107 105 98 87 73 64 63 64 66 71 74 68 64 67 73 76 78 79 80 77 73 73 74 71 69 70 69 66 66 68 73 78 81 80 78 74 68
324 24 98 192 148 103 111 255 225 157 143 128 114 122 143 154 158 129 117 128 135 132 132 134 132 133 138 140 136 136 145 152 155 160 145 126 125 129 131 135 138 134 129 120 109 103 99 92 87 85 83 81 83 82 74 64 60 61 67 68 60 54 59 68 72 71 74 84 87 79 74 75 74 71 70 72 72 71 71 72 75 78 79 78 77 73
308 22 2 295 228 143 192 219 194 148 139 121 114 132 155 133 109 99 105 121 131 130 132 133 133 136 142 142 137 138 147 157 156 145 129 123 131 139 142 146 141 130 125 124 119 113 106 100 95 88 82 78 79 82 80 74 68 67 68 62 51 46 51 62 68 65 64 73 87 91 83 77 74 72 69 68 70 73 75 76 75 76 77 77 78 79
126 94 298 273 283 93 156 187 134 78 102 121 130 155 145 116 107 104 101 107 122 132 135 136 141 145 145 143 140 142 151 159 149 135 130 131 136 134 131 128 119 112 111 114 116 115 113 111 107 102 97 92 89 88 87 82 78 74 70 66 56 50 55 67 72 66 61 61 68 84 92 82 73 70 65 63 66 71 75 78 77 77 79 79 79 79
138 157 202 222 230 177 206 189 145 123 137 144 139 137 126 111 109 113 113 112 121 135 141 142 143 143 142 143 143 144 150 151 137 132 134 136 133 128 127 126 120 115 115 115 117 121 123 122 118 115 113 109 105 101 97 92 87 79 71 68 63 57 60 69 71 65 59 55 55 64 75 76 76 74 64 60 64 69 74 80 80 78 77 77 77 77
166 184 198 169 172 253 224 167 133 118 131 145 119 112 112 109 110 118 125 124 130 142 145 144 143 139 139 145 147 145 144 138 136 135 133 135 135 134 136 138 133 127 128 130 130 128 127 129 130 128 126 124 120 115 111 105 98 87 75 67 63 60 64 68 66 60 55 51 50 53 55 56 59 64 60 56 60 71 79 85 88 85 80 77 75 73